EW3148 Weather Reports


Display with metric or nautical units.
time (UTC)temp
F
wind
direction
speed
MPH
gust
MPH
rain 1hr
in
rain 24hr
in
rain mn
in
humidity
%
barometer
mb
20260505182507 81 159 4.0 16.0 0.00 0.00 0.00 74 1005.8
20260505181458 80 219 3.0 16.0 0.00 0.00 0.00 77 1005.9
20260505180512 78 206 3.0 10.0 0.00 0.00 0.00 79 1006.0
20260505175500 77 241 3.0 7.0 0.00 0.00 0.00 81 1006.2
20260505174514 77 225 3.0 9.0 0.00 0.00 0.00 81 1006.3
20260505173534 76 217 2.0 9.0 0.00 0.00 0.00 82 1006.4
20260505172531 76 231 2.0 8.0 0.00 0.00 0.00 84 1006.7
20260505171458 75 222 3.0 9.0 0.00 0.00 0.00 83 1006.6
20260505170516 75 193 2.0 10.0 0.00 0.00 0.00 84 1006.6
20260505165525 75 234 2.0 10.0 0.00 0.00 0.00 85 1006.6
20260505163406 74 255 2.0 8.0 0.00 0.00 0.00 86 1006.6
20260505162336 73 219 1.0 6.0 0.00 0.00 0.00 87 1006.5
20260505161343 73 221 2.0 7.0 0.00 0.00 0.00 88 1006.7
20260505153114 72 197 2.0 9.0 0.00 0.00 0.00 89 1006.6
20260505152126 72 234 3.0 9.0 0.00 0.00 0.00 89 1006.4
20260505125009 70 205 3.0 10.0 0.00 0.00 0.00 90 1005.4
20260505124021 70 202 3.0 10.0 0.00 0.00 0.00 90 1005.2
20260505123018 70 188 3.0 10.0 0.00 0.00 0.00 90 1005.2
20260505121957 70 180 3.0 10.0 0.00 0.00 0.00 90 1005.0
20260505121019 70 176 4.0 14.0 0.00 0.00 0.00 90 1005.0
20260505120008 70 207 3.0 14.0 0.00 0.00 0.00 90 1005.0
20260505115008 70 209 3.0 10.0 0.00 0.00 0.00 90 1004.9
20260505113939 70 244 2.0 8.0 0.00 0.00 0.00 90 1004.7
20260505113004 70 209 4.0 13.0 0.00 0.00 0.00 90 1004.7
20260505111953 70 187 4.0 14.0 0.00 0.00 0.00 90 1004.9
20260505110926 70 205 2.0 11.0 0.00 0.00 0.00 90 1004.9
20260505101957 70 180 4.0 14.0 0.00 0.00 0.00 90 1005.1
20260505100925 70 190 4.0 14.0 0.00 0.00 0.00 90 1005.0
20260505095906 70 217 4.0 14.0 0.00 0.00 0.00 89 1005.2
20260505094848 70 171 5.0 14.0 0.00 0.00 0.00 89 1005.1
20260505093829 70 207 4.0 14.0 0.00 0.00 0.00 89 1005.0
20260505092831 70 186 5.0 21.0 0.00 0.00 0.00 89 1005.1
20260505090713 70 182 4.0 17.0 0.00 0.00 0.00 88 1005.1
20260505085715 70 202 5.0 20.0 0.00 0.00 0.00 88 1005.1
20260505084720 70 195 5.0 20.0 0.00 0.00 0.00 88 1005.3
20260505083740 70 192 5.0 13.0 0.00 0.00 0.00 88 1005.3
20260505082747 70 202 5.0 20.0 0.00 0.00 0.00 89 1005.3
20260505081747 70 184 4.0 20.0 0.00 0.00 0.00 89 1005.6
20260505080754 70 174 6.0 22.0 0.00 0.00 0.00 89 1005.8
20260505075741 70 232 5.0 22.0 0.00 0.00 0.00 88 1005.7
20260505074804 70 186 4.0 17.0 0.00 0.00 0.00 88 1005.8
20260505072613 70 192 6.0 19.0 0.00 0.00 0.00 87 1006.2
20260505071541 70 202 5.0 19.0 0.00 0.00 0.00 87 1006.2
20260505070602 70 215 7.0 19.0 0.00 0.00 0.00 86 1006.3
20260505065553 71 204 6.0 19.0 0.00 0.00 0.00 86 1006.4
20260505064543 71 207 7.0 18.0 0.00 0.00 0.00 86 1006.6
20260505063554 71 196 5.0 17.0 0.00 0.00 0.00 86 1006.7
20260505062600 71 225 5.0 17.0 0.00 0.00 0.00 86 1006.9
20260505061601 71 193 6.0 17.0 0.00 0.00 0.00 86 1007.0
20260505060610 71 186 6.0 17.0 0.00 0.00 0.00 86 1007.1
20260505054458 71 205 6.0 19.0 0.00 0.00 0.00 86 1007.0
20260505053513 71 261 7.0 20.0 0.00 0.00 0.00 86 1007.0
20260505052446 71 175 6.0 20.0 0.00 0.00 0.00 86 1007.0
20260505051435 71 184 5.0 18.0 0.00 0.00 0.00 86 1006.9
20260505050454 71 195 7.0 18.0 0.00 0.00 0.00 86 1006.9
20260505033950 72 179 6.0 15.0 0.00 0.00 0.00 82 1006.9
20260505032950 73 202 5.0 12.0 0.00 0.00 0.00 81 1006.9
20260505031934 73 156 4.0 12.0 0.00 0.00 0.00 80 1006.9
20260505030954 73 173 5.0 12.0 0.00 0.00 0.00 79 1006.9
20260505025914 74 179 4.0 10.0 0.00 0.00 0.00 79 1007.1
20260505024845 74 116 5.0 12.0 0.00 0.00 0.00 78 1007.0
20260505023818 74 227 5.0 12.0 0.00 0.00 0.00 78 1007.1
20260505022743 75 189 4.0 12.0 0.00 0.00 0.00 77 1007.0
20260505021757 75 182 4.0 12.0 0.00 0.00 0.00 76 1007.0
20260505020811 75 215 4.0 12.0 0.00 0.00 0.00 76 1006.9
20260505015759 75 180 5.0 12.0 0.00 0.00 0.00 75 1006.8
20260505014755 75 174 3.0 9.0 0.00 0.00 0.00 74 1006.9
20260505013805 76 173 3.0 9.0 0.00 0.00 0.00 73 1006.8
20260505012747 76 184 3.0 9.0 0.00 0.00 0.00 72 1006.8
20260505011758 77 160 3.0 13.0 0.00 0.00 0.00 71 1006.7
20260505010811 77 162 4.0 15.0 0.00 0.00 0.00 69 1006.7
20260505005735 77 204 5.0 15.0 0.00 0.00 0.00 68 1006.6
20260505004709 78 211 6.0 13.0 0.00 0.00 0.00 67 1006.5
20260505003732 78 197 5.0 19.0 0.00 0.00 0.00 65 1006.5
20260505002708 79 186 7.0 19.0 0.00 0.00 0.00 64 1006.4
20260505001732 80 172 5.0 16.0 0.00 0.00 0.00 63 1006.4
20260505000728 80 174 7.0 16.0 0.00 0.00 0.00 63 1006.5
20260504235719 80 183 5.0 13.0 0.00 0.00 0.00 62 1006.7
20260504234728 80 207 6.0 16.0 0.00 0.00 0.00 62 1006.8
20260504233707 80 174 5.0 16.0 0.00 0.00 0.00 61 1006.9
20260504231541 81 180 7.0 17.0 0.00 0.00 0.00 61 1007.0
20260504230540 80 183 7.0 19.0 0.00 0.00 0.00 61 1007.0
20260504225513 81 197 7.0 19.0 0.00 0.00 0.00 59 1007.4
20260504223441 81 184 5.0 18.0 0.00 0.00 0.00 59 1007.6
20260504222445 81 220 7.0 18.0 0.00 0.00 0.00 60 1007.6
20260504221447 81 155 7.0 16.0 0.00 0.00 0.00 60 1007.7
20260504220509 82 207 6.0 23.0 0.00 0.00 0.00 60 1007.8
20260504215502 81 157 8.0 23.0 0.00 0.00 0.00 59 1007.8
20260504214442 82 180 7.0 19.0 0.00 0.00 0.00 60 1007.8
20260504213422 81 175 9.0 19.0 0.00 0.00 0.00 60 1007.9
20260504212433 81 164 7.0 18.0 0.00 0.00 0.00 59 1007.9
20260504210331 83 148 5.0 18.0 0.00 0.00 0.00 59 1008.3
20260504205328 82 163 8.0 20.0 0.00 0.00 0.00 58 1008.5
20260504204305 82 138 7.0 20.0 0.00 0.00 0.00 58 1008.6
20260504203308 82 225 7.0 14.0 0.00 0.00 0.00 59 1008.8
20260504202315 83 152 6.0 18.0 0.00 0.00 0.00 59 1009.0
20260504200114 82 207 8.0 15.0 0.00 0.00 0.00 58 1009.3
20260504195139 83 194 5.0 15.0 0.00 0.00 0.00 58 1009.5
20260504194134 82 162 5.0 17.0 0.00 0.00 0.00 59 1009.8
20260504193113 81 232 5.0 17.0 0.00 0.00 0.00 59 1009.8
20260504192114 80 192 4.0 20.0 0.00 0.00 0.00 63 1010.0
20260504191123 80 172 7.0 20.0 0.00 0.00 0.00 61 1010.2
20260504190148 79 174 6.0 17.0 0.00 0.00 0.00 62 1010.3
20260504185140 79 192 8.0 18.0 0.00 0.00 0.00 61 1010.3
20260504184114 79 213 7.0 18.0 0.00 0.00 0.00 61 1010.5